Starlink 6350

operational
NORAD ID: 57226 Int'l Des: 2023-094 Owner: SPXS Country: US Constellation: starlink
LEOCIRCULAR

Starlink 6350について

説明を読み込み中...

リアルタイム位置

3D地球を読み込み中...

次回通過

高度履歴

Altitude vs Time

uPlot chart will show altitude changes over time

軌道要素

1 57226U 23094J 25304.55193985 .00000194 00000-0 29473-4 0 9992
2 57226 43.0048 12.0828 0001494 273.7340 86.3331 15.02537058127693
Epoch: Oct 31, 2025 • Age: 22 hours

現在のステータス

高度 558.7 km
速度 7.59 km/s
衛星直下点 19.28°N, 172.22°E
打ち上げ日 Jul 7, 2023
運用期間 2.3 years
タイプ internet

技術仕様

分類 Payload
質量 305.00 kg
乾燥質量 290.00 kg
総質量 305.00 kg
長さ 0.20 m
直径 2.80 m
スパン 9.00 m
形状 Box + pan
製造者 SPXS
バスタイプ Starlink
フェーズステータス In Orbit
所有者/国 SPXS/US

大規模コンステレーション

Loading constellations...